Theta_e
308 308 310 311 310 310 311 312 313 315 314 310 308 311 304 302 300 313 315 317 313 304 296 298 296 295 297 301 301 304 301 299 300 297 298 297 299 298 298 298 297 298 298 298 297 297 292 295 293 295 295 297 300 302 302 303 300 300 294 298 294 295 288 287 288 292 291 291 293 294 293 294 290 290 291 292 289 291 289 287 285 283 284 283 283 280 284
307 308 309 310 310 310 310 311 310 313 313 310 312 306 302 303 303 305 315 316 312 301 290 290 293 295 298 298 298 303 302 300 298 297 298 296 296 295 296 299 300 298 301 298 296 299 291 296 296 293 297 295 303 302 302 302 298 298 295 294 297 290 287 289 285 284 285 286 287 287 290 290 286 287 291 293 293 291 290 287 285 283 286 285 282 280 285
307 307 308 309 310 310 310 310 310 309 314 314 311 302 304 302 304 305 308 313 309 297 299 294 291 292 294 294 294 296 298 301 302 300 298 300 298 298 296 298 300 298 300 298 299 300 297 291 298 298 296 297 300 302 302 301 298 301 301 298 301 293 289 288 284 282 280 279 280 281 282 285 288 289 288 291 291 290 287 285 287 283 287 286 285 285 289
307 307 308 309 310 309 309 309 309 309 309 313 310 305 302 298 291 299 302 306 305 303 305 301 295 292 292 292 294 296 294 300 302 303 302 302 301 300 300 300 301 298 297 295 296 296 300 296 291 295 293 296 293 300 301 300 299 299 298 297 298 287 289 291 289 288 287 288 288 289 289 285 284 286 287 289 290 291 290 289 286 284 286 285 288 289 290
307 307 308 309 309 309 309 308 308 309 308 308 309 305 301 301 294 294 293 301 301 299 302 299 299 293 296 289 293 292 294 297 299 303 297 302 301 300 299 299 297 296 296 294 294 296 296 298 296 294 294 293 293 296 298 299 298 296 296 298 292 286 288 290 291 291 293 294 294 294 292 287 288 287 286 288 289 289 288 287 286 290 285 284 290 291 288
306 307 307 307 308 309 309 308 308 308 308 308 307 299 301 292 296 300 302 296 291 293 294 299 298 298 297 293 296 293 293 294 292 300 301 303 303 297 298 299 299 298 296 295 291 293 293 295 293 296 295 290 293 292 295 295 296 296 295 297 292 288 288 291 291 290 294 295 295 296 293 291 290 289 289 287 288 288 287 287 290 289 286 285 290 290 289
305 306 306 306 307 308 309 308 308 307 307 306 302 298 301 299 297 297 302 294 295 296 297 298 297 296 296 294 294 292 293 292 295 296 297 298 297 300 292 295 298 298 299 296 292 294 289 290 295 292 292 290 289 287 291 293 294 293 290 292 288 290 289 290 291 289 291 292 293 294 293 293 292 290 290 290 288 288 288 288 290 289 289 291 291 290 290
305 305 306 306 306 306 308 308 308 307 306 306 300 299 297 294 294 291 296 296 294 295 296 295 295 292 296 291 292 293 293 292 295 298 297 293 296 301 296 297 298 299 299 298 294 295 296 295 291 295 295 290 292 290 292 287 289 289 288 290 290 290 289 291 288 287 288 291 292 291 291 291 289 291 291 291 290 289 289 289 289 289 289 290 291 289 289
304 305 305 306 306 306 306 307 307 306 306 300 298 298 299 297 296 299 295 291 293 293 293 293 292 289 292 290 291 293 293 293 296 296 300 298 295 297 296 298 298 299 298 298 297 300 299 299 298 298 297 293 296 293 291 293 287 289 287 287 288 289 286 287 287 285 286 289 289 289 289 289 288 289 289 290 289 287 287 287 290 288 287 288 288 287 288
303 304 305 306 306 305 305 306 307 306 305 300 300 295 299 298 300 299 298 290 294 291 291 292 292 286 290 291 292 292 293 295 297 293 299 300 301 300 299 299 298 296 297 296 298 301 301 301 300 299 300 301 298 299 296 295 291 288 288 288 287 287 287 286 286 283 285 289 288 287 288 287 285 286 289 291 291 291 292 292 291 291 291 288 286 287 293
303 304 305 305 305 305 305 305 307 307 304 298 298 297 297 296 295 296 296 288 288 290 291 288 289 291 293 293 293 295 295 296 297 291 290 298 299 302 301 299 297 295 295 300 302 301 299 298 295 297 297 298 298 297 298 297 295 292 289 287 287 287 288 287 288 283 285 288 287 286 284 278 281 292 295 295 291 291 289 290 291 292 292 291 293 290 289
302 303 304 305 304 304 304 305 305 307 305 303 303 300 300 301 297 295 290 286 287 289 290 287 289 289 291 293 293 292 293 294 295 297 294 296 298 300 300 299 299 292 298 300 299 299 299 299 297 297 294 293 295 296 296 296 296 295 294 291 287 287 287 287 289 284 285 286 285 282 277 281 290 287 288 292 295 294 291 292 293 293 292 292 291 290 288
301 303 303 304 305 304 304 305 306 306 306 303 302 297 303 303 299 294 290 286 285 286 287 288 291 291 292 294 292 293 294 293 292 293 293 294 292 294 299 298 298 298 298 300 300 300 295 289 288 287 288 288 288 291 292 294 295 296 295 296 292 287 287 287 285 286 283 281 283 277 279 287 286 287 284 286 289 289 289 289 292 293 293 292 291 293 290
301 301 302 303 304 304 304 304 305 305 306 305 300 300 303 301 295 292 290 286 285 287 288 287 287 287 288 289 290 291 291 289 289 290 291 291 292 294 292 291 291 291 291 299 297 295 288 288 289 288 286 288 287 287 288 290 291 292 293 294 295 292 289 288 285 288 281 283 283 283 288 287 289 286 281 286 286 286 288 285 288 292 293 292 292 292 289
300 300 302 302 303 304 304 304 304 304 305 305 302 301 302 301 301 296 294 291 285 286 287 284 287 287 289 287 290 288 287 286 287 287 287 288 287 288 289 289 290 291 291 296 290 291 290 286 283 284 285 283 280 283 286 285 285 284 288 291 293 293 288 288 285 284 287 283 282 282 281 279 285 286 283 288 286 290 291 289 288 289 290 292 291 291 287
300 300 301 302 302 303 303 304 304 303 303 304 302 300 301 303 302 301 296 290 287 283 285 290 293 288 287 286 289 287 286 286 286 286 285 286 286 287 288 289 290 291 292 292 290 289 287 286 284 285 281 283 286 283 280 284 282 285 285 285 287 287 289 288 287 285 284 282 280 281 279 282 284 282 282 284 284 288 289 287 285 287 284 288 291 288 286
300 301 300 300 301 302 302 303 303 303 303 303 300 300 298 304 300 298 294 291 289 285 292 293 292 290 286 285 286 286 287 286 287 284 284 285 285 285 286 288 288 291 290 290 288 288 285 284 286 286 286 286 284 283 284 281 281 279 282 284 285 285 286 286 283 283 285 283 281 280 285 285 284 282 282 283 280 287 289 279 280 287 285 287 289 288 286
299 299 300 301 301 302 302 302 303 303 303 303 301 299 298 303 302 301 295 291 287 287 291 293 290 287 286 287 286 287 288 286 285 286 285 285 284 284 286 287 286 288 290 288 287 287 285 286 284 284 284 285 285 287 280 283 279 279 277 281 281 282 282 285 281 283 284 284 283 285 285 286 283 281 281 282 282 288 283 279 285 282 281 285 288 287 287
299 299 300 300 301 301 302 302 302 303 303 302 302 300 298 302 303 302 296 292 289 285 293 293 294 291 291 291 287 288 287 288 287 285 283 284 284 285 286 286 288 285 287 285 288 286 286 285 287 285 285 283 284 283 286 282 280 281 282 281 281 283 284 282 285 282 282 284 282 283 285 286 283 281 282 283 288 281 281 285 281 281 282 284 287 287 287
298 299 299 300 300 301 301 301 301 301 302 303 301 296 299 301 302 301 296 290 290 289 289 288 290 290 291 289 286 285 285 286 286 286 285 282 285 286 286 283 286 286 284 286 283 286 285 284 285 286 283 285 284 286 281 282 282 280 281 284 283 283 282 279 281 283 283 282 281 280 277 284 281 284 284 284 283 284 283 281 281 282 282 284 285 287 286
298 298 298 299 299 299 301 301 301 301 302 302 301 297 295 297 299 300 298 296 289 287 288 291 290 292 292 291 292 292 290 287 288 286 286 286 287 286 280 281 285 285 282 286 281 284 285 283 283 283 284 284 285 285 279 281 279 283 283 283 283 287 282 282 283 287 280 281 278 280 285 283 284 286 284 284 287 286 284 285 283 282 283 283 284 285 286
297 298 298 299 298 299 299 300 300 300 301 301 301 298 294 297 298 299 297 294 291 287 286 289 289 290 292 292 292 293 294 295 294 295 288 285 287 286 286 285 286 286 286 287 283 283 283 283 284 280 280 280 284 279 282 278 278 281 280 281 281 287 284 285 282 287 284 282 283 283 282 284 283 283 283 285 285 285 286 286 285 283 283 283 283 283 284
297 297 298 298 299 299 299 300 300 300 300 301 300 296 294 295 294 297 295 290 290 290 289 287 288 289 292 291 291 291 290 290 294 295 295 289 286 286 284 285 285 286 285 286 285 285 285 283 280 285 281 282 282 280 280 282 280 281 279 284 284 283 285 284 285 283 282 283 283 283 283 283 283 284 284 285 285 284 285 284 283 283 283 283 282 282 283
296 297 297 298 299 299 299 299 300 300 300 301 300 297 295 296 295 295 293 292 287 285 286 287 286 283 285 287 289 289 290 290 293 295 294 296 286 285 286 286 287 286 285 286 287 285 284 283 282 284 280 284 284 280 279 278 279 282 281 281 283 282 282 284 282 284 283 279 281 280 282 282 282 284 284 283 283 284 284 284 284 283 282 283 283 281 282
296 296 297 297 298 298 299 298 299 299 300 300 300 300 298 295 295 295 289 284 284 286 282 283 284 289 290 292 292 289 289 292 294 293 294 294 294 289 286 288 289 287 285 285 285 285 286 282 282 281 279 285 286 279 285 282 280 284 278 281 282 281 284 282 283 281 281 278 278 279 279 281 282 282 283 283 283 284 283 281 280 280 281 281 281 281 281
296 296 296 297 297 298 298 299 298 299 300 300 299 296 294 293 295 296 293 293 290 287 283 282 283 288 290 289 287 290 292 291 291 291 293 293 294 293 287 287 286 288 286 286 286 285 284 282 282 281 282 282 287 282 280 282 281 284 281 280 284 283 285 278 283 280 278 278 279 278 281 282 282 281 282 283 283 282 282 281 280 280 280 280 279 280 280
296 296 296 296 296 297 298 298 298 298 299 300 298 298 297 297 296 294 290 288 286 282 284 283 284 282 285 286 290 290 290 290 289 289 290 290 290 290 289 287 286 285 285 284 284 284 282 280 282 280 283 281 284 281 282 280 281 280 279 282 281 282 279 282 281 277 277 278 278 279 279 278 282 282 283 283 283 282 281 280 280 279 279 279 279 278 278
295 296 296 296 296 296 297 298 298 299 299 299 298 297 298 296 296 296 297 294 289 283 283 284 284 283 286 283 289 290 290 290 289 288 288 288 289 289 288 286 286 285 284 285 282 282 282 281 279 283 281 281 281 278 281 281 281 278 279 280 282 281 282 281 279 280 278 282 282 283 283 283 284 285 284 284 283 282 281 280 280 279 279 279 279 277 278
294 295 295 295 295 295 297 297 298 298 298 297 296 295 294 297 297 297 297 297 290 285 285 285 286 283 279 283 290 288 290 290 288 287 287 286 287 288 288 287 286 286 286 285 285 284 283 282 284 281 280 284 282 277 281 274 276 277 282 283 283 283 283 284 283 280 280 282 282 283 281 281 281 285 285 284 283 282 281 281 280 279 279 279 279 278 278
295 294 294 295 295 295 295 297 298 298 298 295 290 287 285 287 296 295 297 297 294 289 284 282 278 281 284 282 282 286 286 289 288 287 286 285 285 286 286 286 285 288 285 284 284 279 283 281 281 281 282 283 281 281 276 275 276 280 283 283 284 282 282 284 283 284 281 281 283 283 281 281 280 284 284 284 283 282 282 281 280 279 279 278 279 279 278
295 295 295 295 295 295 295 296 297 298 297 291 287 283 281 280 288 297 297 296 296 289 285 285 281 285 280 284 284 283 285 287 286 285 285 285 284 284 285 285 282 285 280 281 282 281 283 277 280 279 282 283 283 279 274 274 272 276 280 282 282 282 282 281 280 283 281 281 282 279 279 278 278 279 281 282 281 281 281 280 281 281 280 279 278 278 279
295 294 294 294 295 295 295 296 296 297 295 289 286 284 286 287 292 296 298 297 295 287 285 281 281 279 278 282 281 285 286 286 286 284 283 284 281 283 282 284 281 284 285 281 280 282 279 282 280 279 279 283 283 276 278 275 275 278 279 279 280 282 281 278 278 279 280 281 280 279 278 278 278 280 280 279 279 279 280 279 279 279 280 279 277 277 277
294 295 295 295 295 294 295 296 295 295 292 294 297 298 297 295 296 298 298 295 290 285 286 283 278 280 280 279 283 282 284 283 281 282 278 284 280 281 278 283 282 281 288 282 278 277 281 279 281 278 280 283 278 277 274 275 279 278 279 279 279 278 278 277 278 279 280 281 283 280 278 279 277 277 276 277 278 278 277 277 276 276 276 275 275 277 277
294 294 294 294 294 295 295 295 295 295 295 291 286 288 292 296 296 298 297 293 287 286 285 282 279 276 276 283 276 281 285 281 280 282 277 283 282 281 277 280 279 277 278 279 280 279 277 278 277 277 279 274 279 275 273 278 279 276 276 277 278 278 278 277 277 278 279 279 278 278 278 278 278 277 277 277 276 276 276 275 275 275 274 274 273 274 274
293 294 295 295 295 295 294 294 290 289 285 287 287 292 294 297 297 298 294 287 283 281 282 281 282 277 276 275 275 280 284 282 279 282 278 280 283 278 280 276 278 275 276 283 277 277 277 276 280 277 273 278 275 271 277 278 276 276 276 277 277 277 277 277 278 278 278 277 276 277 277 277 277 276 277 276 275 275 275 274 274 275 275 274 274 274 274
293 294 294 295 295 294 290 290 287 285 284 284 286 294 297 298 298 296 291 286 283 282 281 281 282 277 278 273 273 279 285 280 282 281 280 279 277 280 280 278 273 277 280 277 274 277 274 280 279 273 280 275 274 277 278 279 276 277 277 277 278 279 279 280 279 277 276 275 275 275 275 275 276 276 275 274 275 273 273 273 273 274 274 275 275 275 274
293 294 294 293 290 286 284 283 287 286 285 290 293 297 298 294 288 290 290 287 285 285 282 282 279 279 280 277 280 280 282 275 282 277 278 274 275 280 278 277 273 279 276 274 276 275 278 283 276 272 275 274 277 279 278 279 278 277 277 278 278 278 278 278 278 277 275 273 273 274 274 273 274 274 275 275 275 273 273 273 273 273 274 274 273 274 274
294 293 288 285 283 280 278 282 283 288 294 295 295 289 286 288 282 283 284 281 284 285 281 283 280 282 283 279 273 283 281 277 281 276 277 280 278 276 279 276 275 279 269 274 275 281 279 276 273 273 273 279 280 278 279 278 278 278 278 278 278 278 278 276 276 276 273 272 273 273 272 271 271 272 275 274 273 273 274 274 274 273 273 273 273 274 273
289 286 285 285 281 279 279 281 291 295 292 291 288 282 281 283 281 278 277 282 284 279 283 282 280 283 281 279 278 284 280 279 277 279 274 281 276 273 279 271 277 278 272 275 275 283 272 274 274 273 273 276 277 279 278 278 276 276 277 278 279 278 277 277 277 277 276 276 277 277 277 277 276 275 275 274 273 273 273 273 273 273 272 272 272 270 269
285 282 281 282 280 282 288 293 296 291 288 282 283 282 276 280 277 272 282 276 275 280 283 277 284 283 283 279 278 277 284 280 276 276 276 278 283 276 278 272 276 276 269 273 274 280 273 271 274 271 272 276 277 279 278 277 273 269 268 267 267 269 271 275 276 273 275 274 273 272 272 273 275 276 275 274 274 272 272 272 271 270 269 269 269 268 266
284 284 282 280 283 283 286 289 287 284 281 278 278 277 276 272 274 277 277 274 275 275 284 281 281 278 281 280 281 277 283 282 280 282 280 275 282 281 276 271 281 270 269 271 277 274 272 271 271 271 273 276 273 271 273 270 267 264 263 262 263 265 267 267 265 264 268 271 268 266 264 263 264 263 264 269 270 270 268 266 263 260 261 261 261 261 261
284 284 285 286 285 284 284 285 285 280 277 279 274 270 274 275 276 271 274 273 273 278 278 280 276 278 278 282 280 281 278 281 283 282 278 273 282 277 276 275 275 270 269 274 276 272 274 268 271 271 276 267 265 265 266 264 263 261 260 261 262 264 265 266 264 261 261 265 264 262 260 258 257 257 257 259 260 260 260 262 260 258 258 257 257 257 258
291 289 287 284 282 279 281 276 277 278 271 270 269 267 271 268 270 272 272 273 273 276 277 280 278 283 280 283 280 282 280 283 280 280 278 275 282 277 274 272 272 268 272 277 275 274 271 270 270 274 268 263 260 259 259 258 260 260 260 261 261 262 264 262 260 258 257 257 258 257 256 255 254 254 255 256 256 255 254 254 254 254 255 254 254 255 254
287 286 282 280 278 277 279 268 278 272 269 271 269 266 268 267 269 267 265 267 270 274 278 276 278 279 276 282 279 278 280 281 283 278 275 278 274 272 274 270 271 276 277 270 273 270 272 273 275 270 262 260 258 256 256 256 255 258 259 259 259 260 262 263 263 262 259 258 257 256 256 255 255 255 255 254 254 253 253 253 254 254 254 253 254 254 254
280 279 278 276 273 277 274 267 276 271 267 268 272 269 269 267 270 270 271 274 276 275 279 279 281 280 278 279 279 280 282 277 284 276 273 276 272 275 271 271 274 273 270 270 272 271 271 271 268 262 263 259 256 254 255 254 255 254 255 257 257 257 258 258 259 259 258 257 256 256 255 255 255 254 253 253 253 252 252 252 252 254 254 254 254 254 255
278 276 275 271 269 273 271 269 269 265 270 272 268 270 272 273 272 271 273 274 276 277 277 279 280 280 278 278 278 277 279 278 276 275 278 275 272 270 273 275 273 268 269 270 267 268 271 273 266 260 256 254 254 254 253 253 254 254 254 253 254 255 255 255 256 257 258 258 257 255 254 254 253 253 251 251 251 251 251 251 252 253 253 254 253 253 254
278 277 276 274 269 271 273 268 268 269 269 270 271 272 273 274 273 274 272 273 276 280 280 278 279 281 277 276 275 275 275 278 275 277 276 271 270 273 276 270 268 270 267 267 268 269 272 262 256 255 253 253 252 253 252 253 252 252 253 253 253 253 254 253 254 254 255 256 256 254 253 253 252 252 252 251 251 250 250 251 252 253 253 252 252 253 252
274 275 274 268 267 269 267 266 266 265 265 267 266 267 270 271 271 269 270 272 277 280 278 277 275 277 276 279 278 274 273 274 273 272 274 273 273 267 269 268 268 271 270 269 271 269 261 255 254 252 252 251 251 250 251 251 251 251 251 252 252 252 252 252 252 252 253 253 253 252 251 250 250 251 250 250 250 250 250 250 250 251 251 251 251 252 251
274 271 271 269 265 266 266 267 268 267 266 267 267 268 269 270 270 271 270 273 278 279 278 278 278 278 273 277 274 274 270 275 270 271 272 268 267 266 267 263 267 264 267 265 262 254 254 254 254 251 250 250 251 250 250 251 251 250 250 250 251 252 252 251 251 252 251 251 251 250 250 251 251 251 251 251 250 250 250 250 250 250 250 251 251 251 251
270 265 262 263 265 265 266 267 267 266 266 266 268 267 269 271 270 266 267 271 280 279 279 279 279 276 274 274 269 272 271 272 271 273 268 268 267 269 268 263 265 267 264 254 254 253 253 253 253 252 252 250 251 249 249 249 250 250 250 250 251 252 251 251 251 251 251 251 250 250 251 252 251 250 250 250 250 250 250 250 250 249 250 250 250 251 251
268 264 260 260 261 261 263 265 266 265 265 263 262 261 262 265 265 265 265 266 276 278 276 274 274 272 271 270 270 266 268 274 271 270 270 268 268 267 266 267 260 252 252 252 252 252 252 252 250 250 250 250 250 249 249 249 249 250 250 250 251 251 251 251 250 250 250 250 250 251 250 250 250 249 250 250 251 252 251 250 250 249 249 249 249 250 250
265 261 260 261 260 258 257 262 263 261 261 261 261 259 261 263 263 262 265 264 274 276 273 272 272 270 269 268 270 272 273 270 269 269 263 258 254 260 259 254 252 253 253 252 252 252 252 251 250 250 249 249 249 248 248 248 248 249 249 249 249 249 250 250 250 250 250 250 250 249 250 250 250 252 252 252 252 251 250 248 249 248 248 249 247 248 248
Wind_Speed
12 13 14 15 15 14 15 13 15 12 14 6 3 4 5 6 8 2 18 22 25 16 16 12 10 12 13 10 7 2 6 12 9 12 13 12 11 7 7 11 7 9 7 10 8 13 6 12 12 7 9 8 12 9 17 12 14 12 1 4 2 9 2 4 5 2 3 3 3 0 1 1 2 4 4 8 15 13 10 7 2 4 3 5 4 9 6
13 13 14 15 14 13 12 12 13 10 20 8 6 7 4 2 4 2 10 20 20 19 17 16 13 10 10 11 12 7 3 7 10 11 17 14 10 15 9 7 14 8 8 5 7 12 5 11 13 7 6 6 9 14 16 19 11 12 9 9 9 4 3 4 3 2 1 0 2 2 1 1 5 5 9 9 5 6 6 1 2 5 13 7 5 16 9
14 13 13 14 14 13 11 12 9 12 16 13 8 6 2 1 2 3 7 16 15 15 12 13 13 15 17 13 16 11 9 6 7 9 12 12 13 9 16 17 7 11 5 6 7 6 13 4 11 11 7 5 1 11 15 19 12 9 7 10 13 7 7 10 8 12 12 10 9 10 8 12 5 3 4 7 12 9 5 8 10 11 14 8 9 17 6
15 14 13 13 14 13 10 11 11 7 11 13 7 5 1 5 5 4 5 10 15 12 9 11 12 13 15 13 13 14 14 8 11 8 8 11 12 14 8 9 10 8 12 13 12 15 13 13 1 8 5 2 1 3 15 16 11 9 14 12 10 4 2 9 12 14 15 15 5 2 9 5 8 10 12 13 12 12 10 7 7 18 8 6 20 20 12
14 14 14 12 12 14 11 9 11 9 6 10 6 5 5 1 6 3 7 2 10 15 15 11 11 14 14 10 7 17 20 13 6 11 6 8 10 9 13 5 10 11 13 16 18 16 10 9 10 8 7 1 2 6 1 11 8 14 9 13 6 2 3 14 18 19 20 19 14 4 13 11 13 12 13 16 15 16 16 15 21 9 1 17 18 5 14
14 14 13 12 11 13 14 11 11 9 7 7 4 4 7 8 2 3 2 4 5 8 10 16 16 18 15 12 6 14 17 14 10 8 15 6 8 7 4 12 14 18 19 14 11 10 12 10 14 13 7 4 1 2 0 4 8 13 4 10 8 7 9 12 14 19 21 20 18 12 7 8 8 14 15 17 18 16 21 25 22 9 13 22 16 10 18
13 13 13 12 11 12 13 12 10 9 7 2 4 5 4 5 1 2 1 3 1 11 5 12 13 16 18 11 13 14 17 19 20 10 7 10 6 10 9 16 22 17 14 12 11 11 9 14 16 10 7 7 5 4 1 3 5 1 3 4 0 3 8 8 9 14 14 19 17 9 10 10 9 8 12 16 19 25 27 23 18 19 20 23 22 12 18
14 13 12 13 12 10 12 13 11 8 6 4 3 4 2 6 8 3 1 1 2 1 4 5 8 9 10 12 14 16 18 21 16 11 9 8 15 12 18 19 15 15 13 14 15 15 18 18 15 11 12 4 5 6 7 4 1 2 4 4 3 6 9 9 3 5 14 18 13 8 11 10 13 15 12 15 20 22 21 16 17 18 19 25 24 18 21
14 13 13 13 12 10 9 11 11 7 3 3 3 2 1 3 2 1 3 4 3 2 2 4 10 8 7 9 8 9 15 19 16 15 15 17 13 14 21 22 14 11 15 15 18 20 19 19 19 6 9 12 8 9 3 11 8 6 4 3 1 4 4 4 2 4 12 17 14 14 10 11 13 18 21 24 24 17 8 14 17 13 21 22 15 16 23
15 14 13 13 13 11 9 9 11 9 5 4 2 4 0 1 1 1 1 5 6 8 3 1 6 10 8 10 10 8 15 15 7 7 7 12 12 9 17 18 13 11 13 16 20 21 13 10 4 3 1 4 2 9 3 12 12 9 9 3 6 7 4 5 4 9 14 20 5 8 10 8 13 19 31 33 21 11 13 14 16 20 19 14 16 22 21
14 14 13 12 13 11 10 8 10 12 5 6 4 2 2 2 2 0 1 2 2 5 7 5 8 1 5 10 10 8 9 9 10 11 3 6 15 10 8 13 13 10 15 15 7 1 2 3 4 2 3 1 1 2 4 4 8 11 10 4 3 4 8 8 5 8 9 15 6 4 4 13 17 20 14 15 18 20 20 21 22 19 16 17 18 10 2
13 13 14 13 13 11 11 11 10 13 10 6 3 3 2 1 2 2 1 5 3 5 7 6 10 4 6 9 12 12 12 12 9 6 15 7 3 6 10 10 8 10 1 5 8 6 6 3 5 5 6 4 1 3 7 10 8 7 11 12 8 12 10 11 6 4 8 2 10 6 15 19 10 5 2 2 12 16 20 23 20 16 15 15 17 14 9
15 12 13 13 13 13 13 12 12 12 12 6 5 6 2 1 1 3 4 2 3 1 5 4 5 5 3 5 8 10 10 3 4 2 1 4 4 2 5 9 13 5 3 3 8 6 4 2 1 0 1 2 2 1 5 9 13 11 9 11 11 10 13 6 4 4 2 3 7 8 14 4 3 4 1 3 2 3 6 13 19 21 18 18 21 23 10
16 13 12 13 13 13 13 13 13 11 13 10 6 7 3 2 2 2 3 3 2 3 3 2 1 3 5 7 8 5 5 3 2 3 4 1 2 3 1 4 2 3 5 1 4 6 1 1 7 2 3 2 2 2 8 12 10 12 14 12 10 13 8 9 9 8 10 7 12 18 6 14 11 7 3 6 7 7 11 12 17 17 16 16 17 16 7
15 14 12 13 14 13 12 14 13 12 11 11 7 6 6 4 3 2 2 1 2 0 3 6 4 9 9 4 5 4 4 3 4 5 2 2 1 2 2 1 1 3 4 4 2 2 6 3 3 4 2 5 8 8 4 4 1 2 6 9 11 11 14 9 12 7 13 13 12 6 5 14 20 3 2 5 1 4 7 9 15 6 9 14 14 14 9
16 15 14 13 13 13 14 14 14 13 12 13 7 7 6 6 4 2 2 4 3 6 5 10 1 4 4 4 8 11 8 5 5 3 2 2 4 1 1 2 2 1 1 1 3 4 4 7 7 6 7 7 1 4 4 3 2 0 3 1 2 2 5 7 15 8 7 10 11 10 11 11 1 2 3 1 0 3 5 4 14 2 1 6 13 10 12
16 15 15 13 12 14 15 15 15 14 13 14 8 7 7 7 7 5 4 2 3 6 1 6 4 5 4 3 2 3 3 5 6 5 4 5 5 3 2 0 1 3 2 3 3 4 5 4 3 5 1 3 4 6 5 2 3 1 3 4 2 6 5 5 7 10 9 10 11 12 6 7 2 2 1 2 2 4 8 5 7 1 2 1 7 11 11
17 16 16 14 14 14 15 15 16 16 14 14 10 7 6 6 8 5 2 4 4 5 3 7 8 4 6 4 5 2 3 2 3 1 1 1 3 2 3 2 2 1 2 5 3 5 7 7 10 8 9 2 1 4 7 7 5 6 7 11 7 6 3 9 15 14 15 13 11 5 5 2 2 4 3 2 2 4 9 12 2 2 3 3 6 8 10
17 18 17 16 15 14 14 15 17 17 15 15 8 8 7 3 6 7 3 3 5 5 4 2 1 3 2 4 2 3 2 3 3 6 3 2 2 2 5 1 1 2 3 6 3 6 7 7 1 2 5 3 2 7 3 6 5 3 7 7 0 4 4 1 4 11 12 12 13 11 4 2 4 2 3 2 5 7 10 1 2 1 1 3 5 8 8
17 17 17 17 17 16 15 14 17 17 17 16 10 7 2 2 6 9 8 5 3 5 3 5 4 8 3 7 6 5 1 2 2 3 3 3 2 6 2 2 1 2 2 1 6 2 5 8 6 2 5 5 6 2 2 1 3 7 4 4 7 11 10 9 12 6 2 1 9 4 9 1 5 7 3 2 4 2 3 3 1 1 2 4 3 6 5
17 17 18 18 18 18 15 14 15 17 18 17 12 6 8 1 2 3 0 1 2 4 4 2 1 4 3 3 4 9 12 9 7 3 2 3 5 4 5 4 6 5 5 6 7 4 3 3 3 3 1 3 3 3 4 3 1 4 3 3 1 2 4 3 7 6 7 9 10 6 2 4 1 2 7 3 2 3 6 4 1 2 1 1 2 1 5
18 17 17 18 19 19 18 16 15 16 17 17 12 5 8 1 2 2 2 2 3 3 0 1 0 1 0 1 2 1 0 1 6 4 7 3 1 2 0 3 3 3 1 2 2 1 2 1 2 2 2 1 2 4 1 5 5 2 3 1 3 2 4 1 3 1 4 2 1 1 2 2 2 3 2 1 1 1 1 3 3 3 2 1 2 3 2
19 18 18 18 18 20 19 17 16 15 16 17 11 6 8 3 1 2 6 2 2 2 1 0 0 0 1 1 2 2 2 1 0 3 4 7 2 0 1 3 1 0 1 1 2 2 1 3 3 1 2 1 4 3 2 1 1 3 5 4 1 2 3 0 1 1 3 3 1 1 3 2 3 3 2 1 1 1 3 3 3 2 2 4 3 2 4
19 19 19 18 18 19 20 19 17 16 16 15 10 5 6 5 5 4 2 2 3 2 0 1 2 4 8 10 3 0 2 0 2 1 0 2 5 1 1 2 0 2 1 0 0 2 3 2 2 1 2 2 4 1 4 2 3 3 1 1 2 2 1 2 3 1 2 2 3 3 2 3 1 0 3 3 0 0 0 1 2 2 3 4 1 3 5
20 20 20 20 19 18 18 19 18 16 16 15 11 7 4 3 6 7 6 6 5 5 5 3 6 1 1 2 7 3 3 2 2 2 2 2 1 3 4 2 2 3 3 3 0 3 1 3 0 2 3 3 4 3 0 3 2 3 3 3 2 3 4 3 2 2 3 1 3 1 1 1 1 2 3 4 3 3 1 1 1 3 3 3 3 5 5
19 20 21 20 20 19 18 18 18 18 16 15 12 8 6 4 6 8 6 2 2 1 4 3 3 1 0 5 2 2 5 6 3 3 2 2 3 5 10 4 4 3 4 2 0 2 2 2 1 1 3 3 3 3 0 1 1 2 3 4 2 3 5 3 3 4 2 3 1 1 4 1 3 3 4 4 5 4 3 0 1 2 3 4 5 4 3
20 21 21 21 20 20 18 17 18 18 17 14 9 8 7 3 7 11 8 7 4 2 3 4 2 1 1 3 2 4 4 6 5 5 4 4 7 5 7 7 8 4 5 3 1 2 1 2 1 3 1 2 2 1 2 1 1 2 2 3 2 5 2 2 5 3 3 6 6 8 7 4 7 9 10 8 7 5 4 1 1 2 3 3 3 3 3
21 20 20 21 21 20 20 18 17 16 17 15 9 8 6 6 7 10 9 7 7 2 3 5 2 3 2 2 1 3 5 6 6 6 5 5 6 8 8 7 6 5 2 4 2 1 1 4 3 1 2 2 2 1 2 0 1 2 5 5 5 6 5 5 5 5 4 4 10 9 2 3 9 13 12 10 7 5 5 4 5 4 4 5 6 4 1
22 22 21 21 21 22 21 19 17 16 17 13 4 6 5 7 5 8 11 5 1 1 2 3 3 3 4 4 5 5 3 6 7 6 6 5 6 6 8 7 6 5 3 2 2 1 2 1 1 4 3 3 4 1 2 1 2 8 8 6 7 4 4 7 6 5 1 4 10 9 5 6 5 9 11 11 7 7 7 6 4 5 5 5 5 5 6
22 22 22 22 22 22 20 19 18 16 15 4 2 1 3 2 6 9 9 7 5 1 2 3 3 2 2 4 1 3 2 3 5 7 7 6 6 6 6 6 3 3 2 3 3 3 2 3 1 1 1 2 4 3 3 3 3 6 2 7 7 4 4 6 8 8 4 4 7 9 6 5 4 8 10 9 8 9 7 6 5 5 4 5 5 4 4
21 21 22 22 22 22 21 19 18 17 14 3 3 4 4 4 5 9 13 10 6 3 2 0 3 2 3 0 2 2 5 5 5 6 6 5 5 4 3 4 1 3 3 2 2 3 1 1 2 2 1 1 1 2 4 2 3 4 3 8 8 8 7 8 4 5 7 6 7 4 1 3 2 3 1 6 6 5 3 2 3 5 5 4 4 4 3
21 23 22 22 22 21 21 21 20 17 7 6 8 5 2 2 2 9 15 11 8 4 4 4 3 2 2 2 0 1 4 5 4 2 2 3 2 1 2 2 3 1 2 3 2 1 1 4 3 4 4 5 3 1 2 2 6 5 3 6 5 8 5 6 4 4 5 9 9 5 3 1 2 8 7 5 3 3 4 3 3 4 5 4 3 4 3
20 20 21 22 22 22 20 21 21 15 5 8 13 18 8 4 11 7 15 11 5 1 1 1 3 3 1 4 3 2 3 4 3 3 2 0 3 2 2 1 1 1 5 1 2 3 2 2 3 4 4 1 4 2 2 7 10 3 7 6 5 4 5 3 4 5 8 8 10 10 8 9 5 2 3 5 5 5 6 5 4 5 5 4 3 1 1
20 20 20 21 21 20 19 19 20 17 13 6 6 6 9 14 5 10 12 8 4 2 2 2 3 3 3 3 5 3 3 8 5 6 4 1 2 4 3 3 1 2 3 5 4 3 2 2 2 4 1 2 1 1 4 10 4 6 3 4 5 4 4 4 4 6 6 4 2 1 4 4 6 7 6 6 5 4 5 5 6 6 4 4 4 3 2
18 17 16 17 18 18 19 19 9 6 5 4 4 5 4 12 13 13 11 2 7 2 3 2 1 4 4 2 3 4 3 2 6 6 4 2 2 4 3 3 3 2 5 4 0 3 3 3 4 3 4 2 3 2 10 2 8 6 5 5 4 6 4 3 1 3 3 3 3 4 4 5 7 4 5 5 7 6 7 4 4 5 5 4 4 4 3
14 16 17 16 16 13 5 6 4 4 5 5 5 4 10 13 15 9 8 1 1 3 7 6 5 5 6 7 6 3 5 2 2 4 1 2 3 1 1 3 1 5 0 2 4 3 4 5 3 2 4 4 9 11 2 7 9 8 10 9 7 8 8 9 7 4 3 4 5 4 6 4 5 4 4 4 4 3 4 4 3 3 1 1 1 3 4
12 13 15 13 5 2 6 5 3 6 5 5 5 6 7 7 3 2 6 4 2 0 2 6 8 8 8 4 2 3 8 7 4 4 3 3 5 2 2 1 4 2 4 0 3 3 4 2 4 3 5 10 11 4 5 6 10 10 7 8 8 4 4 4 6 8 5 5 6 3 3 3 2 2 4 3 4 4 4 3 4 3 2 3 3 1 0
10 9 3 2 4 4 2 4 4 7 10 12 11 6 1 3 4 3 2 3 2 3 2 2 5 7 4 7 4 8 8 5 5 6 3 4 4 1 2 2 3 3 4 4 4 4 2 2 3 6 7 10 5 4 6 4 4 6 6 6 7 5 6 5 7 8 6 2 0 1 0 1 1 3 5 5 4 4 5 3 2 2 2 2 2 1 2
1 2 2 3 3 4 5 4 8 15 11 2 1 2 2 2 3 4 4 3 3 5 3 4 7 8 9 7 4 5 3 8 9 5 6 6 5 3 3 3 5 3 3 1 5 6 2 3 2 3 9 8 8 8 4 4 4 3 4 5 7 7 7 6 7 11 10 9 10 9 10 9 8 8 6 5 4 3 1 2 2 2 2 2 2 3 3
2 3 4 4 6 2 2 8 22 11 4 3 2 3 3 3 4 4 2 4 2 1 4 6 4 7 11 14 13 9 4 7 13 11 8 5 1 5 3 3 3 4 4 5 3 6 6 7 4 3 10 10 12 5 7 7 7 3 5 6 7 4 2 3 4 1 2 1 3 2 1 1 1 4 7 7 5 5 3 2 2 3 3 3 3 4 2
2 2 2 4 2 2 2 5 4 2 2 4 3 2 2 2 2 2 3 5 4 3 2 4 5 3 4 4 8 9 3 2 1 3 4 4 3 4 3 4 3 5 3 4 2 6 3 1 3 6 13 8 2 3 7 8 5 4 6 6 6 5 6 5 5 6 3 5 5 6 5 5 7 7 4 2 3 4 3 3 4 3 4 4 4 3 1
1 1 1 4 4 3 4 3 4 2 1 2 2 3 3 2 1 3 1 4 5 3 3 5 8 10 8 12 8 5 2 1 3 3 3 2 3 4 4 1 1 4 3 3 4 2 4 3 5 5 8 3 2 4 6 7 4 4 6 7 7 7 8 6 6 10 10 6 5 5 5 8 9 7 6 5 7 6 4 4 6 6 6 3 2 3 3
6 4 1 3 2 2 1 2 2 2 2 1 1 2 1 3 4 3 2 0 3 2 4 3 1 4 2 4 4 2 3 2 3 3 3 5 2 2 2 2 2 3 4 1 4 4 4 6 6 12 2 5 3 5 5 4 4 4 6 7 7 6 6 6 7 7 7 9 8 7 6 9 7 5 4 5 7 9 8 6 5 3 4 4 4 4 4
3 4 2 2 2 0 1 5 2 3 1 2 4 6 2 1 2 2 1 3 2 3 5 10 9 14 9 3 6 3 2 2 1 2 2 1 4 3 2 3 4 2 4 2 2 4 7 3 8 3 5 3 5 5 6 5 6 3 5 7 8 8 8 7 7 8 9 7 7 6 5 6 5 7 7 8 9 9 7 6 4 3 3 4 6 5 4
3 2 3 3 2 2 3 3 2 3 6 5 4 6 5 9 5 4 7 2 4 5 3 4 9 11 9 4 4 1 3 4 2 4 3 3 3 2 3 4 2 2 4 4 3 2 1 6 2 6 5 4 4 4 4 5 5 5 4 3 8 9 9 8 8 7 6 7 7 6 8 6 6 7 9 9 7 6 6 6 3 4 3 5 5 6 5
6 5 3 3 4 3 3 1 2 2 2 3 4 6 7 8 5 5 2 2 5 3 7 6 6 8 7 1 5 5 4 3 4 2 2 2 4 3 2 2 4 4 3 3 4 7 11 6 5 4 5 5 4 4 4 4 6 5 6 6 7 7 8 7 6 7 7 6 6 7 6 6 6 7 7 7 7 8 7 5 5 4 3 6 7 6 5
1 1 2 0 2 2 2 4 4 2 1 1 2 5 5 5 3 4 3 4 6 8 8 2 3 7 10 5 4 2 1 1 4 2 4 3 4 2 3 4 3 3 7 8 6 5 7 2 2 4 4 4 4 4 5 5 5 7 7 5 5 6 7 7 7 7 6 6 7 7 6 6 6 6 5 8 8 7 6 6 7 6 6 6 5 5 6
6 0 1 3 4 3 7 2 2 3 0 0 1 2 1 2 5 1 3 3 4 7 9 8 6 4 3 3 4 4 3 1 3 2 1 3 3 4 2 2 2 2 2 7 11 3 4 4 2 3 3 3 3 4 5 6 6 6 6 6 6 6 7 7 7 6 7 7 6 6 6 5 5 6 7 7 6 7 6 5 5 5 7 6 6 7 7
3 2 2 3 2 2 2 2 6 5 1 1 0 1 1 2 4 2 3 3 5 9 6 9 8 6 1 1 2 3 3 3 4 4 3 2 4 4 5 6 4 3 2 1 2 4 2 4 3 3 2 3 4 4 4 4 5 4 4 5 6 5 5 5 6 6 5 5 5 5 5 4 4 5 5 6 9 7 6 6 7 6 6 6 6 7 7
3 4 5 4 1 3 0 2 5 4 1 2 2 2 5 0 4 1 6 2 5 9 7 8 4 5 2 3 1 0 0 1 2 2 4 3 2 2 4 3 4 5 5 3 3 2 3 2 4 4 4 4 4 5 4 4 4 5 3 2 3 5 5 5 5 6 6 5 5 5 5 6 6 6 6 7 6 4 6 8 7 7 7 5 6 7 8
3 5 4 2 3 2 2 6 7 8 5 3 3 3 4 3 2 2 6 5 1 8 5 5 3 3 2 2 2 2 2 2 4 3 5 4 1 1 4 5 1 2 3 3 2 3 3 3 3 2 4 3 4 4 4 3 3 3 4 3 1 3 5 6 4 5 6 6 6 7 8 6 5 5 5 4 4 6 9 9 8 7 6 7 6 7 7
3 3 2 3 6 5 5 1 7 7 5 3 3 4 4 2 5 7 8 6 4 10 7 2 4 4 2 4 2 2 2 3 1 3 4 2 4 0 1 3 4 3 4 4 3 3 4 3 3 3 3 3 3 4 3 3 1 1 2 4 3 3 4 4 5 5 5 6 7 7 6 4 3 2 2 4 5 7 9 6 5 4 5 6 5 6 6
Wind_Direction
294 297 302 299 294 303 309 309 315 218 162 161 213 142 226 203 223 76 167 158 165 182 214 201 205 208 222 237 242 0 192 218 208 207 224 241 238 249 218 219 225 218 217 199 190 169 203 189 210 201 215 224 198 164 179 153 166 154 93 49 338 70 142 187 262 99 53 47 154 75 27 116 339 273 213 177 209 196 209 211 165 209 223 217 246 247 271
288 291 295 294 289 293 304 309 333 269 177 188 145 193 236 211 198 169 180 170 166 186 196 200 208 223 234 218 232 222 261 213 205 206 198 209 216 228 241 234 226 243 209 215 211 166 220 203 208 224 191 231 180 169 175 158 170 166 191 163 178 123 261 134 93 330 292 9 9 338 12 82 220 208 208 217 222 199 218 329 66 276 231 199 185 251 247
280 283 287 288 286 285 293 307 315 332 216 189 161 199 196 239 265 209 187 169 184 197 193 193 196 206 219 213 218 224 236 228 239 225 213 202 219 214 225 228 202 225 228 235 235 195 205 236 206 218 193 230 341 173 169 171 175 200 175 155 163 168 165 152 194 216 220 226 216 204 199 208 225 234 199 200 210 197 136 223 217 235 247 161 234 253 230
274 278 284 289 286 277 286 294 310 315 327 233 181 185 191 207 237 164 223 200 172 220 208 202 191 203 213 221 223 218 233 230 223 237 256 225 215 225 239 222 217 214 212 232 229 231 216 217 170 193 223 185 328 181 173 179 183 177 135 147 147 146 147 182 192 210 230 236 250 115 129 109 184 217 189 213 207 211 205 221 216 227 232 181 230 238 268
272 276 282 294 297 282 268 289 295 303 313 314 235 175 192 9 237 173 194 192 219 185 197 206 191 210 193 216 182 217 219 215 222 207 242 232 231 226 225 195 196 207 206 215 228 228 230 226 234 211 199 54 189 3 144 195 171 131 124 152 101 82 179 203 206 214 229 237 227 169 149 179 204 198 210 210 203 204 203 207 228 212 32 256 243 216 251
271 276 279 289 306 290 271 270 284 301 306 334 272 217 152 217 241 237 252 223 199 208 201 192 202 215 195 220 191 217 218 210 220 187 226 227 224 230 228 225 217 210 206 208 225 217 229 218 229 228 206 100 15 161 340 183 163 146 158 173 155 161 204 215 209 225 232 239 244 225 198 195 193 204 206 206 209 205 210 223 227 186 214 239 247 174 236
268 270 273 279 292 304 277 260 263 281 306 352 282 242 180 194 10 221 5 229 252 221 206 175 193 212 199 217 213 220 216 215 212 201 187 214 220 208 222 221 221 217 211 205 219 207 212 227 227 221 201 174 144 178 17 293 46 63 97 178 214 146 236 220 192 227 243 247 247 246 243 247 238 217 213 214 207 211 214 222 218 216 228 240 252 234 238
262 267 271 271 278 291 294 269 256 260 279 298 256 259 223 183 192 231 157 246 343 349 189 187 179 228 196 203 207 211 212 219 212 214 201 196 213 198 226 230 222 222 222 216 221 216 216 218 223 212 207 187 171 199 186 130 37 97 162 170 295 165 230 192 130 211 247 253 253 253 246 254 261 256 247 230 222 220 217 217 226 224 240 244 246 254 260
261 262 265 265 265 273 294 278 255 249 259 236 237 292 153 342 3 0 138 214 179 177 163 179 185 196 202 219 220 219 223 229 210 213 209 207 197 194 215 226 223 217 222 223 228 229 224 227 231 213 182 216 197 182 223 142 156 159 144 167 232 156 281 44 99 205 256 252 241 244 247 247 254 260 253 246 237 229 194 214 221 204 226 237 244 252 253
264 262 262 264 263 265 280 290 255 238 213 252 222 237 173 34 223 106 315 238 179 192 148 141 162 213 197 188 209 207 228 238 218 247 232 234 231 207 218 227 220 223 220 225 229 233 239 256 288 286 174 239 230 207 175 163 154 173 186 137 150 177 160 180 174 219 242 255 200 221 231 240 249 248 243 238 239 230 228 227 221 215 218 229 229 234 244
263 263 262 263 263 260 266 282 274 230 206 226 232 233 132 176 179 179 289 214 245 187 168 203 188 197 152 194 225 222 246 227 213 218 223 203 231 222 218 224 218 223 222 228 245 13 52 89 110 43 67 54 173 164 182 183 165 161 158 139 181 170 195 215 176 232 234 261 238 131 185 223 226 236 250 239 233 221 221 231 225 221 201 223 229 249 278
261 262 259 259 255 256 257 258 271 253 215 234 280 277 172 261 91 88 0 246 231 183 194 200 187 203 190 177 200 215 226 234 237 206 230 219 243 229 221 237 224 231 279 66 92 92 82 77 58 76 58 52 85 174 186 195 207 190 162 167 167 190 198 224 190 213 239 158 102 200 218 230 239 22 274 211 228 225 222 236 240 234 226 235 248 247 221
260 260 262 258 257 257 257 258 252 263 232 221 238 249 165 173 244 148 155 174 279 194 203 217 202 206 149 171 193 214 210 173 95 67 10 243 242 220 214 223 223 232 61 116 109 125 204 197 61 166 276 37 24 43 204 207 213 195 205 197 182 191 197 196 223 202 6 110 186 234 234 246 329 266 80 254 102 173 191 246 244 235 224 217 229 236 217
267 265 264 263 259 254 259 261 260 262 258 222 228 232 245 150 142 130 145 139 236 177 224 283 81 177 172 200 203 200 105 136 101 70 205 77 210 224 8 35 16 337 296 148 116 112 50 113 242 157 254 130 0 235 222 217 218 203 204 213 209 194 196 190 232 178 228 198 216 237 332 316 282 265 195 145 174 172 176 228 245 230 220 214 224 234 196
268 264 260 265 267 266 257 259 264 260 273 249 231 247 228 208 221 158 199 126 211 144 215 216 190 208 199 191 172 191 187 180 184 230 149 73 161 227 150 294 316 319 321 154 132 187 196 127 217 186 181 159 217 232 74 209 340 337 230 214 203 191 199 189 216 217 204 223 238 242 252 246 253 253 217 178 196 193 186 200 263 239 203 204 209 222 172
262 262 260 259 264 265 259 257 257 263 265 271 229 234 235 214 178 254 159 144 164 246 201 219 173 149 165 203 190 191 191 180 195 161 179 203 222 65 289 205 242 264 326 102 152 154 161 183 203 203 210 202 182 80 240 133 301 76 65 65 191 271 240 201 207 211 184 219 230 225 226 242 159 208 204 212 322 140 130 148 253 258 219 201 196 190 169
262 262 259 258 258 257 259 256 252 247 256 265 244 220 237 186 183 177 139 115 184 226 20 154 124 124 105 77 124 219 187 208 163 189 194 210 202 164 102 56 286 110 218 137 211 152 150 192 169 217 248 132 155 203 80 131 186 263 52 73 125 198 197 165 217 223 217 215 225 232 220 254 224 219 257 243 321 155 106 195 272 312 345 229 179 170 158
263 264 260 257 253 255 256 257 256 249 239 254 262 232 230 193 184 201 180 151 173 234 169 175 148 144 183 181 159 179 104 96 75 32 66 99 104 153 181 142 75 262 177 190 167 197 196 198 204 201 215 159 166 118 211 159 190 179 178 173 167 182 215 198 210 214 219 219 242 271 275 278 171 175 227 253 271 124 161 215 199 2 6 347 105 134 151
261 260 260 259 256 253 253 256 259 255 243 233 252 251 254 254 176 196 205 184 185 231 170 190 191 171 116 54 111 140 154 173 162 142 157 155 220 163 123 199 160 167 170 182 176 210 203 221 126 163 200 201 169 199 131 156 189 87 115 129 258 229 205 323 225 228 223 220 231 235 278 238 145 269 200 238 109 198 205 170 235 163 58 4 109 134 154
258 260 262 262 257 253 250 251 255 255 250 241 230 241 265 235 191 192 202 199 181 228 148 182 181 181 194 146 149 124 119 64 216 137 202 162 128 118 97 128 304 106 59 178 217 202 205 216 195 170 218 174 212 120 20 244 64 159 174 206 178 183 175 189 204 207 279 148 241 225 241 219 109 128 33 302 148 258 130 152 14 155 168 111 100 142 169
261 260 259 259 257 252 249 247 252 257 255 246 232 223 238 292 257 220 257 314 183 213 235 193 84 196 157 198 188 170 159 173 180 156 220 120 190 162 151 217 167 153 177 164 193 184 193 187 153 186 244 129 201 124 202 131 290 294 129 196 180 209 164 192 224 179 206 197 213 216 308 136 255 135 174 158 187 160 165 120 53 29 30 114 99 180 177
259 259 257 259 258 256 253 250 246 250 253 250 237 213 247 179 184 151 85 41 243 205 121 127 65 162 133 133 115 56 180 165 183 143 136 139 223 176 208 49 117 144 193 93 65 34 10 194 47 100 162 184 337 161 279 135 209 184 6 170 156 210 169 131 185 155 179 217 124 322 293 32 13 79 325 180 32 89 262 88 142 140 251 194 153 220 155
258 258 258 256 256 260 255 252 248 246 246 245 238 216 225 163 124 146 139 132 345 45 198 52 170 214 211 177 130 127 142 287 344 101 137 122 163 133 128 153 193 108 41 51 163 126 136 114 187 178 41 291 162 133 351 145 61 149 166 242 180 20 168 260 102 293 134 68 83 41 22 31 10 19 323 34 74 344 41 121 118 239 196 179 176 180 150
256 257 256 256 256 254 255 252 249 249 249 246 238 215 214 188 162 132 151 128 173 151 148 247 142 221 204 221 159 139 79 37 257 159 337 128 149 144 47 325 172 48 20 214 267 135 191 96 206 71 145 241 88 141 164 214 215 171 82 313 272 224 150 93 139 226 119 274 75 41 93 105 355 337 333 348 345 284 303 226 150 165 155 193 58 130 145
251 254 254 254 253 252 254 255 252 248 248 248 240 239 229 156 162 159 164 166 191 184 200 165 222 226 72 78 114 112 196 163 108 97 83 53 127 165 178 144 122 146 170 157 232 80 46 116 204 80 155 256 108 233 197 110 272 138 169 234 111 300 173 81 173 85 137 155 136 238 38 22 282 247 185 206 238 266 292 344 57 79 82 100 87 94 107
249 250 252 249 250 249 248 250 251 249 245 246 239 220 212 198 173 170 192 307 332 184 193 204 187 29 273 92 122 193 151 129 144 104 81 86 80 116 131 124 63 55 96 76 31 132 150 77 110 193 149 265 106 173 240 226 165 2 178 236 183 158 111 204 160 125 97 46 81 62 78 352 293 296 279 249 223 223 252 280 50 67 86 71 48 55 140
248 247 249 250 247 249 246 245 247 248 247 244 238 227 216 196 161 178 183 174 153 279 212 216 130 342 328 153 124 81 127 140 133 115 106 98 104 103 113 122 115 93 98 80 31 105 44 118 171 196 204 207 82 152 106 68 97 219 237 233 127 91 168 176 90 113 193 190 182 170 133 223 228 236 225 225 227 216 219 151 159 134 124 124 99 44 24
248 246 246 248 246 244 245 244 245 248 249 245 239 234 219 217 183 187 196 205 221 254 181 174 144 211 124 0 252 128 150 144 137 131 130 128 126 127 131 133 126 122 131 125 89 104 189 156 211 122 52 284 70 316 121 313 48 335 236 229 180 164 187 141 169 168 217 174 168 193 158 170 199 200 212 211 213 193 197 196 211 189 164 153 139 120 81
249 246 244 243 243 241 241 242 241 241 243 245 231 249 245 224 204 199 200 195 86 27 51 81 56 84 156 210 118 94 131 152 148 139 135 138 139 145 143 152 146 155 128 105 129 118 124 139 81 139 178 239 91 253 136 150 197 233 233 154 168 210 168 165 171 117 142 171 168 184 166 183 218 204 198 202 195 181 203 216 193 171 160 157 150 157 150
247 247 244 242 241 239 238 240 239 236 238 218 205 217 226 256 202 186 202 195 154 166 155 150 141 212 63 38 82 132 111 156 145 137 138 144 147 152 156 145 162 152 139 157 170 145 196 128 141 286 306 305 124 220 107 240 245 264 143 148 171 144 148 166 155 148 194 181 170 183 190 197 212 187 189 194 190 183 199 202 170 144 154 149 146 154 154
242 241 245 242 239 238 237 236 237 231 227 189 141 191 175 222 201 192 183 185 168 126 215 309 141 98 46 331 86 120 145 141 140 138 144 140 141 140 149 96 44 145 101 200 125 214 149 107 161 212 132 304 158 139 182 183 239 286 226 153 160 158 168 182 189 148 140 154 160 148 119 143 111 60 219 214 208 175 147 96 131 138 152 138 153 146 140
243 238 238 238 237 237 237 236 234 233 205 187 209 188 200 204 329 174 173 168 143 140 168 130 168 112 193 144 292 247 124 134 113 95 97 123 67 107 57 113 179 168 151 146 189 143 205 210 124 185 136 230 139 118 207 177 228 247 114 129 176 179 169 124 119 128 137 147 125 109 155 212 179 165 204 199 149 122 131 111 111 119 119 118 114 99 104
243 240 238 236 234 232 233 235 233 229 186 207 231 253 258 252 317 210 165 155 123 175 190 216 185 178 149 188 115 345 145 86 49 124 147 206 139 128 115 132 90 54 281 119 233 163 238 112 174 149 215 123 113 204 190 220 238 164 149 171 165 143 131 142 132 145 146 165 156 160 194 198 193 160 92 118 127 132 122 114 103 86 85 83 80 75 43
239 237 235 234 235 231 229 232 235 240 239 215 230 219 241 232 259 226 178 149 127 157 120 205 163 118 138 99 79 235 176 150 164 145 141 158 179 109 187 92 250 121 279 137 249 77 315 101 151 169 94 19 232 84 248 244 154 136 148 134 138 123 129 130 139 145 167 150 23 100 142 123 123 125 92 90 89 77 98 112 111 102 121 124 154 188 183
240 236 231 230 231 231 230 225 225 213 216 218 230 245 210 195 192 208 194 145 136 165 157 229 188 149 125 90 159 165 154 126 152 171 128 149 93 141 189 99 245 132 260 97 326 162 167 188 188 138 214 183 88 218 238 189 124 143 134 142 150 124 87 104 220 174 140 107 80 77 82 103 105 125 146 136 135 145 126 122 144 142 147 157 161 177 155
242 237 233 228 229 229 243 241 217 182 206 211 210 179 192 185 182 182 190 328 34 176 165 190 157 186 149 152 171 169 121 27 157 89 109 119 35 302 99 140 124 229 350 100 196 168 164 235 115 212 199 172 219 217 199 134 161 161 162 169 185 157 174 178 167 140 101 84 89 74 64 59 94 118 103 105 110 112 117 102 67 83 84 63 143 161 157
252 242 232 229 206 116 215 216 189 196 214 192 191 135 151 90 22 163 195 202 243 15 229 174 174 186 165 165 95 154 142 158 136 92 160 111 160 149 114 168 180 177 64 292 214 173 225 96 109 201 217 205 231 140 136 158 162 168 179 174 184 175 124 133 143 130 102 77 65 52 77 102 92 86 109 136 144 139 116 149 169 155 188 222 241 282 91
260 247 189 150 132 195 194 199 198 193 182 147 130 98 25 111 190 166 169 179 223 111 260 246 204 175 146 122 159 181 139 176 110 141 126 179 123 147 184 145 220 141 142 205 218 156 115 106 187 205 247 245 250 141 175 157 170 173 168 165 169 172 157 144 127 119 135 113 302 247 333 65 189 227 177 204 168 167 201 188 170 164 149 169 187 171 101
238 176 159 169 162 203 199 217 163 151 140 189 145 108 182 162 180 210 192 159 157 197 199 169 184 176 172 155 108 151 163 151 149 168 154 193 123 190 146 144 259 93 251 142 260 140 144 212 221 218 249 242 246 227 164 135 104 99 137 158 166 176 162 161 160 158 169 184 194 192 177 192 204 221 204 201 221 220 188 156 153 153 153 142 119 98 107
129 196 189 178 205 198 68 130 139 142 134 139 189 185 206 185 186 229 177 143 159 216 157 197 191 180 181 170 155 183 239 163 164 173 164 141 162 151 157 86 248 112 208 196 205 118 143 191 190 181 261 245 236 201 145 144 117 37 21 12 8 11 10 175 170 25 153 96 65 82 54 88 156 167 178 191 184 187 208 169 109 79 83 94 86 83 76
201 158 171 197 152 105 143 128 83 86 148 170 157 188 206 240 229 228 150 191 175 203 163 162 141 162 173 133 148 161 174 74 41 69 116 158 187 98 128 172 212 99 219 175 191 91 151 94 198 200 238 246 107 53 112 97 86 56 26 15 13 7 5 25 45 16 39 89 71 56 45 58 71 59 52 89 146 146 125 108 80 42 50 51 58 59 41
253 284 131 101 92 101 93 126 170 141 176 202 172 218 191 231 80 11 248 166 179 158 195 160 175 176 183 167 167 116 101 184 122 125 117 159 203 131 197 122 37 130 186 191 100 103 135 148 207 237 231 95 58 37 74 91 46 38 23 19 20 17 17 29 40 23 8 47 76 71 51 53 61 53 18 38 66 76 81 87 82 48 58 60 65 53 45
177 217 189 101 184 179 145 137 223 145 153 123 93 263 189 174 210 163 220 281 329 107 200 50 77 88 7 84 37 45 154 158 123 165 138 165 108 58 144 159 152 144 216 78 103 161 162 193 212 230 125 96 50 54 37 32 28 52 51 36 32 19 41 54 59 58 38 31 42 50 49 57 53 43 38 63 90 82 59 61 70 78 67 73 68 53 33
166 183 161 179 117 242 139 202 173 73 176 173 167 205 141 177 274 51 80 261 209 193 189 148 175 144 165 156 130 130 67 11 344 76 26 86 93 169 140 183 172 182 63 39 176 164 194 208 224 173 106 101 55 34 14 11 4 355 35 37 32 31 38 54 63 69 59 52 54 54 57 57 61 51 46 43 48 86 90 65 49 68 75 79 67 54 31
142 204 153 134 182 199 109 217 109 153 193 198 178 201 191 205 197 184 207 202 139 197 162 162 159 155 142 137 75 58 131 157 150 115 192 139 106 201 137 186 143 87 119 177 157 200 95 233 195 85 131 95 54 22 17 11 5 355 317 16 30 27 33 44 51 59 59 54 44 45 48 41 45 52 45 46 38 43 60 54 14 50 62 81 79 66 34
189 181 152 132 169 174 173 201 120 179 223 175 192 189 192 207 175 197 235 95 152 134 142 173 157 135 126 272 130 159 119 135 103 173 127 115 141 193 178 39 55 109 174 117 152 191 209 211 94 86 42 40 35 22 23 14 13 1 38 39 9 20 25 31 38 54 54 57 60 59 58 54 59 59 53 41 35 31 33 23 21 36 44 68 55 53 29
206 190 167 157 187 199 158 196 199 195 134 129 165 171 204 195 185 157 176 162 172 170 148 112 126 153 151 162 109 34 76 162 137 184 103 120 158 135 40 107 175 172 161 184 187 212 209 123 52 42 22 17 7 23 27 26 16 24 28 31 16 24 23 24 23 30 25 47 68 66 64 66 69 74 80 61 46 36 28 30 31 37 60 71 61 57 53
208 221 115 157 196 150 181 209 103 89 289 166 312 340 335 120 104 177 261 202 162 137 137 123 111 93 77 311 51 141 127 148 95 321 145 152 62 56 156 89 180 170 175 181 203 160 92 49 47 23 15 17 15 20 24 22 23 25 25 19 19 24 27 29 26 22 23 35 49 62 68 65 72 81 83 89 78 49 39 36 41 49 64 68 66 67 71
65 108 198 193 174 145 128 142 129 107 127 77 71 354 312 167 154 107 351 313 157 154 160 141 153 119 129 48 105 138 183 222 123 189 85 31 130 175 154 182 158 188 252 62 103 46 54 50 79 79 32 31 33 31 19 18 26 17 23 17 17 20 27 37 41 35 39 50 57 67 70 72 74 78 77 73 72 49 33 38 44 48 51 67 78 82 80
61 42 21 6 28 48 40 85 92 120 85 88 58 23 336 33 121 24 334 302 166 118 93 42 26 86 160 108 130 48 46 3 151 102 81 182 180 186 102 163 207 177 163 70 53 61 44 14 30 39 36 33 33 27 9 352 18 24 14 357 6 36 39 41 44 43 36 48 51 53 57 58 55 58 74 81 87 91 64 52 44 49 50 53 76 85 87
68 85 102 0 344 309 352 140 171 159 141 84 41 28 348 359 10 332 13 329 186 137 132 136 150 109 110 88 136 109 247 148 85 159 144 143 359 128 188 184 151 43 85 90 80 56 55 37 41 17 17 18 23 10 12 350 354 9 18 4 25 63 54 55 55 57 54 48 55 67 66 66 69 89 97 114 112 95 76 54 41 41 50 50 47 65 73
61 77 60 51 29 18 319 346 57 54 56 51 62 9 352 345 350 314 326 314 220 161 164 125 104 132 126 173 184 120 60 47 123 113 79 65 357 296 61 56 74 49 50 67 61 60 62 61 53 38 40 7 5 351 345 341 7 55 46 41 49 81 78 62 62 72 85 75 67 77 81 76 82 84 94 78 69 70 66 56 28 37 57 66 66 69 79